San Jose, Costa Rica

6:56 PM CST on December 10, 2016 (GMT -0600)
Juan Santamaria International

Weather History for MROC - October, 2012

Change the Weather History Date:

Thursday, October 11, 2012

  Actual Average Record
Temperature  
Mean Temperature 74 °F -  
Max Temperature 83 °F 78 °F 86 °F (2002)
Min Temperature 64 °F 64 °F 62 °F (2008)
Cooling Degree Days 8    
Growing Degree Days 24 (Base 50)    
Moisture  
Dew Point 63 °F    
Average Humidity 74    
Maximum Humidity 94    
Minimum Humidity 44    
Precipitation  
Precipitation 0.00 in 0.34 in - ()
Sea Level Pressure  
Sea Level Pressure 29.98 in    
Wind  
Wind Speed 5 mph ()    
Max Wind Speed 13 mph    
Max Gust Speed -    
Visibility 6.4 miles    
Events Fog , Rain    
Averages and records for this station are not official NWS values.
T = Trace of Precipitation, MM = Missing Value Source: Averaged Metar Reports

Daily Weather History Graph

Daily Weather History Graph

Search for Another Location

Airport or City:

Trip Planner

Search our weather history database for the weather conditions in past years. The results will help you decide how hot, cold, wet, or windy it might be!

Date:

Astronomy

Oct. 11, 2012 Rise Set
Actual Time 5:25 AM CST 5:21 PM CST
Civil Twilight 5:04 AM CST 5:42 PM CST
Nautical Twilight 4:39 AM CST 6:07 PM CST
Astronomical Twilight 4:15 AM CST 6:31 PM CST
Moon 1:46 AM CST 2:20 PM CST
Length of Visible Light 12h 38m
Length of Day
11h 56m
Waning Crescent, 18% of the Moon is Illuminated
Oct 11
Waning Crescent
Oct 15
New
Oct 21
First Quarter
Oct 29
Full
Nov 6
Last Quarter

Hourly Weather History & Observations

Time (CST) Temp. Heat Index Dew Point Humidity Pressure Visibility Wind Dir Wind Speed Gust Speed Precip Events Conditions
12:00 AM 68 °F - 66 °F 93% 29.87 in 2 mi SW 4.6 mph - - Fog Heavy Fog
12:00 AM 68.0 °F - 66.2 °F 94% 30.02 in 1.9 mi SW 4.6 mph - N/A   Mostly Cloudy
12:22 AM 68.0 °F - 66.2 °F 94% 30.01 in 0.3 mi SSW 2.3 mph - N/A Fog Fog
1:00 AM 68.0 °F - 66.2 °F 94% 30.00 in 0.3 mi Calm Calm - N/A Fog Fog
2:00 AM 68.0 °F - 66.2 °F 94% 29.99 in 0.6 mi Calm Calm - N/A   Scattered Clouds
2:30 AM 66.2 °F - 64.4 °F 94% 29.97 in 5.0 mi ENE 3.5 mph - N/A Fog Fog
3:00 AM 65 °F - 64 °F 93% 29.85 in 9 mi ENE 4.6 mph - -   Scattered Clouds
3:00 AM 66.2 °F - 64.4 °F 94% 29.97 in 6.2 mi ENE 4.6 mph - N/A   Scattered Clouds
4:00 AM 68.0 °F - 60.8 °F 78% 29.97 in - ENE 6.9 mph - N/A   Clear
5:00 AM 68.0 °F - 60.8 °F 78% 29.96 in 6.2 mi ENE 8.1 mph - N/A   Scattered Clouds
6:00 AM 69 °F - 62 °F 71% 29.88 in 12 mi ESE 4.6 mph - -   Scattered Clouds
6:00 AM 69.8 °F - 62.6 °F 78% 29.99 in 6.2 mi ESE 4.6 mph - N/A   Mostly Cloudy
7:00 AM 73.4 °F - 62.6 °F 69% 30.01 in 6.2 mi ESE 10.4 mph - N/A   Mostly Cloudy
8:00 AM 73.4 °F - 62.6 °F 69% 30.03 in - North - - N/A   Mostly Cloudy
9:00 AM 77.0 °F - 62.6 °F 61% 30.05 in 6.2 mi ESE 12.7 mph - N/A   Mostly Cloudy
10:00 AM 80.6 °F 81.8 °F 62.6 °F 54% 30.03 in 6.2 mi East 11.5 mph - N/A   Scattered Clouds
11:00 AM 82.4 °F 82.9 °F 60.8 °F 48% 30.01 in 6.2 mi East 12.7 mph - N/A   Scattered Clouds
12:00 PM 81 °F - 63 °F 44% 29.86 in 12 mi SE 9.2 mph - -   Partly Cloudy
12:00 PM 80.6 °F 81.8 °F 62.6 °F 54% 30.00 in 6.2 mi SE 9.2 mph - N/A   Scattered Clouds
1:00 PM 77.0 °F - 64.4 °F 65% 29.97 in 6.2 mi East 12.7 mph - N/A Rain Light Rain
2:00 PM 78.8 °F - 60.8 °F 54% 29.96 in 6.2 mi East 8.1 mph - N/A Rain Light Rain
3:00 PM 78 °F - 62 °F 48% 29.81 in 12 mi ESE 6.9 mph - - Rain Light Rain
3:00 PM 77.0 °F - 62.6 °F 61% 29.96 in 6.2 mi ESE 6.9 mph - N/A   Mostly Cloudy
4:00 PM 73.4 °F - 66.2 °F 78% 29.97 in 6.2 mi WNW 8.1 mph - N/A   Mostly Cloudy
5:00 PM 71.6 °F - 66.2 °F 83% 29.99 in 6.2 mi NW 3.5 mph - N/A   Mostly Cloudy
6:00 PM 72 °F - 66 °F 76% 29.86 in 12 mi Calm Calm - -   Overcast
6:00 PM 71.6 °F - 66.2 °F 83% 30.01 in 6.2 mi Variable 2.3 mph - N/A   Mostly Cloudy
7:00 PM 73.4 °F - 60.8 °F 65% 30.03 in 6.2 mi ESE 6.9 mph - N/A   Mostly Cloudy
8:00 PM 71.6 °F - 60.8 °F 69% 30.06 in 6.2 mi ENE 2.3 mph - N/A   Mostly Cloudy
9:00 PM 71 °F - 62 °F 64% 29.91 in 12 mi ESE 3.5 mph - -   Scattered Clouds
9:00 PM 71.6 °F - 60.8 °F 69% 30.07 in 6.2 mi ESE 3.5 mph - N/A   Scattered Clouds
10:00 PM 69.8 °F - 64.4 °F 83% 30.06 in 6.2 mi West 2.3 mph - N/A   Scattered Clouds
11:00 PM 69.8 °F - 62.6 °F 78% 30.05 in 6.2 mi East 4.6 mph - N/A   Mostly Cloudy